User: anonymous   Login
Location: Elk Forest
(39.5314°N, 75.8738°W)
Time: 07:02:55
(UTC-04:00)
Language:

Resurs 01 Rocket - Orbit

View from above orbital plane
View from above orbital plane
View from above satellite
View from above satellite

Ground track
Ground track

The orbit data is extracted from the following two-line orbital elements,

1 23343U 94074B   18145.18031211 -.00000012  00000-0  57881-5 0  9993
2 23343  98.1064 189.7621 0008081  61.9717 339.5150 14.76731701267308
Epoch (UTC): 25 May 2018 04:19:38
Eccentricity: 0.0008081
inclination: 98.1064°
perigee height: 634 km
apogee height: 645 km
right ascension of ascending node: 189.7621°
argument of perigee: 61.9717°
revolutions per day: 14.76731701
mean anomaly at epoch: 339.5150°
orbit number at epoch: 26730

The dashed part of the orbit path shows where the satellite is in the earth's shadow,  

DLR